Weather History for KCNM - April, 2013

Change the Weather History Date:

Wednesday, April 17, 2013

  Actual Average Record
Temperature  
Mean Temperature 72 °F -  
Max Temperature 91 °F 79 °F 96 °F (2011)
Min Temperature 54 °F 49 °F 35 °F (1999)
Cooling Degree Days 8    
Growing Degree Days 22 (Base 50)    
Moisture  
Dew Point 12 °F    
Average Humidity 15    
Maximum Humidity 55    
Minimum Humidity 4    
Precipitation  
Precipitation 0.00 in - - ()
Sea Level Pressure  
Sea Level Pressure 29.56 in    
Wind  
Wind Speed 12 mph (WSW)    
Max Wind Speed 30 mph    
Max Gust Speed 48 mph    
Visibility 8 miles    
Events      
Averages and records for this station are not official NWS values.
T = Trace of Precipitation, MM = Missing Value Source: NWS Daily Summary

Daily Weather History Graph

Daily Weather History Graph

Search for Another Location

Airport or City:

Trip Planner

Search our weather history database for the weather conditions in past years. The results will help you decide how hot, cold, wet, or windy it might be!

Date:

Astronomy

Apr. 17, 2013 Rise Set
Actual Time 6:25 AM MDT 7:28 PM MDT
Civil Twilight 5:59 AM MDT 7:53 PM MDT
Nautical Twilight 5:29 AM MDT 8:23 PM MDT
Astronomical Twilight 4:59 AM MDT 8:54 PM MDT
Moon 11:47 AM MDT (4/17) 1:00 AM MDT (4/17)
Length of Visible Light 13h 53m
Length of Day
13h 03m
Waxing Crescent, 43% of the Moon is Illuminated
Apr 17
Waxing Crescent
Apr 18
First Quarter
Apr 25
Full
May 2
Last Quarter
May 9
New

Hourly Weather History & Observations

Time (MDT) Temp. Dew Point Humidity Pressure Visibility Wind Dir Wind Speed Gust Speed Precip Events Conditions
12:53 AM 64.9 °F 7.0 °F 10% 29.60 in 10.0 mi SW 6.9 mph - N/A   Clear
1:53 AM 68.0 °F 7.0 °F 9% 29.59 in 10.0 mi ESE 5.8 mph - N/A   Clear
2:53 AM 59.0 °F 9.0 °F 14% 29.58 in 10.0 mi ENE 3.5 mph - N/A   Clear
3:53 AM 62.1 °F 12.0 °F 14% 29.57 in 10.0 mi North 4.6 mph - N/A   Clear
4:53 AM 68.0 °F 10.0 °F 11% 29.55 in 10.0 mi WNW 4.6 mph - N/A   Clear
5:53 AM 54.0 °F 27.0 °F 35% 29.58 in 10.0 mi South 6.9 mph - N/A   Clear
6:53 AM 57.0 °F 37.9 °F 49% 29.58 in 8.0 mi East 5.8 mph - N/A   Clear
7:53 AM 62.6 °F 46.4 °F 55% 29.74 in 6.0 mi East 5.8 mph - N/A   Haze
8:53 AM 70.0 °F 39.9 °F 33% 29.60 in 8.0 mi ESE 8.1 mph - N/A   Clear
9:53 AM 78.1 °F 21.0 °F 12% 29.58 in 10.0 mi South 8.1 mph - N/A   Clear
10:53 AM 82.0 °F 8.1 °F 6% 29.55 in 10.0 mi Variable 4.6 mph - N/A   Clear
11:53 AM 88.0 °F 3.9 °F 4% 29.51 in 10.0 mi WSW 16.1 mph 27.6 mph N/A   Clear
12:53 PM 88.0 °F 1.0 °F 4% 29.49 in 10.0 mi WSW 20.7 mph 26.5 mph N/A   Clear
1:53 PM 89.1 °F -0.9 °F 4% 29.45 in 10.0 mi SW 18.4 mph 33.4 mph N/A   Clear
2:53 PM 91.0 °F -2.9 °F 4% 29.44 in 10.0 mi SW 26.5 mph 43.7 mph N/A   Clear
3:53 PM 90.0 °F -6.0 °F 4% 29.42 in 10.0 mi SW 23.0 mph 39.1 mph N/A   Clear
4:53 PM 89.1 °F -6.0 °F 4% 29.39 in 8.0 mi WSW 29.9 mph 48.3 mph N/A   Clear
5:53 PM 88.0 °F -9.0 °F 4% 29.42 in 7.0 mi SW 20.7 mph 34.5 mph N/A   Mostly Cloudy
6:16 PM 84.2 °F 1.4 °F 4% 29.58 in 2.0 mi West 21.9 mph 35.7 mph N/A   Haze
6:53 PM 84.0 °F 5.0 °F 5% 29.44 in 2.5 mi WSW 26.5 mph 33.4 mph N/A   Haze
7:53 PM 79.0 °F 12.0 °F 8% 29.47 in 3.0 mi West 27.6 mph 42.6 mph N/A   Haze
8:53 PM 73.9 °F 21.0 °F 14% 29.55 in 3.0 mi West 27.6 mph 38.0 mph N/A   Haze
9:53 PM 70.0 °F 19.0 °F 14% 29.61 in 5.0 mi West 23.0 mph 27.6 mph N/A   Haze
10:53 PM 66.9 °F 16.0 °F 14% 29.64 in 7.0 mi WNW 21.9 mph 31.1 mph N/A   Mostly Cloudy
11:51 PM 60.8 °F 21.2 °F 22% 29.85 in 9.0 mi North 21.9 mph - N/A   Clear
11:53 PM 60.1 °F 21.9 °F 23% 29.69 in 10.0 mi North 20.7 mph - N/A   Clear